Weather in Siquirres

Costa Rica     10°05′51″N   83°30′22″W
temp.,
°C
wind,
m/s
gust,
m/s
humid.,
%
clouds,
%
prec.,
mm/h
press.,
hPa
HPBL,
m
5 march, fri
fri500:00+18sw119785 1.6 101430
03:00+17sw229754 0.1 101239
06:00+17ssw229532 0.1 101338
09:00+25ne125917 0.0 1015940
12:00+27ne335632 0.3 10121301
15:00+24ne237083 0.8 1010926
18:00+20ne139488 1.5 1011149
21:00+19n0196100 0.5 101362
6 march, sat
sat600:00+18s019887 0.9 101332
03:00+18ssw119878 0.6 101126
06:00+18ssw119767 1.2 101327
09:00+23ne127960 0.4 1014646
12:00+25ne336465 0.3 1012959
15:00+25ne336295 0.1 1010940
18:00+19ne118675 0.1 101140
21:00+18ssw119040 0.0 101447
7 march, sun
sun700:00+17ssw229145 0.0 101436
03:00+16ssw22915 0.0 101338
06:00+15ssw35722 0.0 1014102
09:00+26ese01450 0.0 1016950
12:00+28ne33410 0.0 10141478
15:00+26ne33460 0.0 10111290
18:00+19ne11852 0.0 101339
21:00+17sw228911 0.0 101635
8 march, mon
mon800:00+18sw228319 0.0 101578
03:00+18sw227274 0.0 101487
06:00+19sw226986 0.0 101561
09:00+22sw116499 0.0 1017296
12:00+26ne226191 0.4 10151029
15:00+21nw019199 1.9 1012263
18:00+20sw1195100 2.9 101429
21:00+19ssw1296100 1.2 101633
9 march, tue
tue900:00+19ssw1295100 1.8 101531
03:00+18ssw229772 1.1 101347
06:00+18ssw239671 1.2 101464
09:00+23e1377100 0.6 1015454
12:00+25ene337099 2.2 1013835
15:00+25ne346984 0.9 1011908
18:00+20ne119682 1.8 101333
21:00+19ssw1296100 0.4 101530